Regional Weather Roundup
Issued by NWS Charleston, SC

Current Version | Previous Version | Graphics & Text | Print | Product List | Glossary On
Versions: 1 2 3 4 5 6 7 8 9 10 11 12 13 14 15 16 17 18 19 20 21 22 23 24 25 26 27 28 29 30 31 32 33 34 35 36 37 38 39 40 41 42 43 44 45 46 47 48 49 50
000
ASUS42 KCHS 161012
RWRCHS

REGIONAL WEATHER ROUNDUP
NATIONAL WEATHER SERVICE CHARLESTON SC
500 AM EST MON JAN 16 2017

NOTE: "FAIR" INDICATES FEW OR NO CLOUDS BELOW 12,000 FEET WITH NO
SIGNIFICANT WEATHER AND/OR OBSTRUCTIONS TO VISIBILITY.

NOT ALL STATIONS ARE QUALITY CONTROLLED. USE DATA WITH CAUTION...
ESPECIALLY DEWPOINT OBSERVATIONS.

SCZ027-030-031-034>040-042>050-161100-
...SOUTHEAST SOUTH CAROLINA...

CITY           SKY/WX    TMP DP  RH WIND       PRES   REMARKS
N CHARLESTON   FOG       58  57  97 NE5       30.29R VSB 1/4
WATERFRONT PRK   N/A     57  57 100 VRB3      30.27F
MOUNT PLEASANT LGT RAIN  57  57 100 CALM      30.29S VSB 1/4
JOHNS ISLAND   FOG       57  57 100 N3        30.29R VSB<1/4
PINOPOLIS      NOT AVBL
MONCKS CORNER  LGT RAIN  55  54  94 NE3       30.30R VSB 1/4
SUMMERVILLE    FOG      N/A N/A N/A CALM      30.30S VSB 1/4
BEAUFORT MCAS  PTCLDY    53  51  93 CALM      30.28R FOG
BEAUFORT ARPT  FAIR      54  54 100 NE3       30.28R FOG
HILTON HEAD IS PTCLDY    55  54  94 N3        30.28R
WALTERBORO     FOG       54 N/A N/A CALM      30.30R VSB 1/2
ALLENDALE      FAIR      52  52 100 CALM      30.27S

...SOUTHERN MIDLANDS AND PEE DEE...

CITY           SKY/WX    TMP DP  RH WIND       PRES   REMARKS
GEORGETOWN     CLOUDY    52  52 100 NE3       30.31S
KINGSTREE      FOG       54  52  94 CALM      30.31S VSB 1/2
ORANGEBURG     FOG       52  52 100 E3        30.29S VSB 1/4
BARNWELL       FAIR      52  52 100 CALM      30.28S FOG
AIKEN          FAIR      45  45 100 CALM      30.31S FOG
MANNING        FOG       54  54 100 CALM      30.31R VSB 3/4
COLUMBIA       FOG       56  54  93 E7        30.29S VSB 1
SUMTER         CLOUDY    55  54  94 E6        30.28S FOG
FLORENCE       FOG       51  51 100 NE5       30.33R VSB 3/4
MYRTLE BEACH   CLOUDY    54  48  82 N6        30.34R
N MYRTLE BEACH CLOUDY    51  50  96 NE7       30.31S

$$

GAZ063-065-086>088-099>101-113>116-118-119-134>141-150-161100-
...SOUTHEAST GEORGIA...

CITY           SKY/WX    TMP DP  RH WIND       PRES   REMARKS
SAVANNAH ARPT  MOCLDY    54  51  90 CALM      30.27R
HUNTER AAF     MOCLDY    55  55 100 CALM      30.25R
FORT STEWART   MOCLDY    55  53  95 CALM      30.24S
STATESBORO     MOCLDY    50  50 100 CALM      30.26F FOG
SYLVANIA       FOG      N/A N/A N/A CALM      30.27F VSB 1/2
CLAXTON        FAIR     N/A N/A N/A CALM      30.27F HAZE

...CSRA...CENTRAL AND FAR SOUTHEAST GEORGIA...

CITY           SKY/WX    TMP DP  RH WIND       PRES   REMARKS
THOMSON        PTCLDY    47  47 100 CALM      30.32S
AUGUSTA-BUSH   FOG       48  46  93 CALM      30.27S VSB 1/4
AUGUSTA-DANIEL PTCLDY    55  50  83 CALM      30.27S
SWAINSBORO     CLOUDY    55  54  94 CALM      30.26F
VIDALIA        FOG       55  55 100 CALM      30.26F VSB 1/2
EASTMAN        CLOUDY    54  54 100 CALM      30.28S
HAZLEHURST     FAIR      60  60 100 SE6       30.24F
ALMA           FOG       52  52 100 CALM      30.26S VSB 1/4
WAYCROSS       FOG       54  54 100 CALM      30.26F VSB 1/4
JESUP          CLOUDY    54  52  94 CALM      30.27S
BAXLEY         FOG       54  54 100 CALM      30.25F VSB 1
BRUNSWICK      MOCLDY    55  55 100 CALM      30.27R
SAINT SIMONS   CLOUDY    60  58  92 CALM      30.26R

$$

SCZ027-028-034-036>038-045-046-048>050-GAZ119-141-161100-
...LAKE AND SUPPLEMENTAL COASTAL OBSERVATIONS...

STATION/POSITION TIME  TEMP    WIND        PRES    WAVE   SWELL
                       AIR SEA DIR/SP/G            HT/PER HT/PER/DIR
                 (UTC) (F)     (DEG/KT/KT) (MB)    (FT/S) (FT/S/D)
WINYAH BAY       NOT AVBL
LAKE MURRAY      0920   55      80/  5/  8 1025.1
ACE BASIN NERRS  NOT AVBL
FORT PULASKI     0948   58 55   70/  3/  4 1025.2R
SAPELO ISLAND    0900   56        CALM     1024.0

$$

ANZ835-935-AMZ111-154-330-350-352-354-370-450-454-472-161100-
...C-MAN AND BUOY OBSERVATIONS...

STATION/POSITION TIME  TEMP    WIND        PRES    WAVE   SWELL
                       AIR SEA DIR/SP/G            HT/PER HT/PER/DIR
                 (UTC) (F)     (DEG/KT/KT) (MB)    (FT/S) (FT/S/D)
BUOY 41004       0850   69 71   70/  4/  6 1024.7    3/10   3/120/10
BUOY 41008       0850   61 60   90/  4/  4 1024.0    2/11   2/ 90/11
FOLLY BEACH CMAN 0900   56      20/  5/  6 1025.9F
CAPERS NEARSHORE 0908   54 54   40/ 10/ 12 1025.4F
FRIPP NEARSHORE  0908   57 55   40/  4/  6 1024.5F


STATION/POSITION TIME  TEMP    WIND        PRES    WAVE   SWELL
                       AIR SEA DIR/SP/G            HT/PER HT/PER/DIR
                 (UTC) (F)     (DEG/KT/KT) (MB)    (FT/S) (FT/S/D)
5E ST. MARYS GA  0930      61                N/A     2/11   2/ 90/11
FRYING PAN BUOY  0950   65 69   40/ 14/ 17 1025.8S   4/11   2/120/11
BUOY 41025       0950   57 74   40/ 17/ 21 1027.1F   5/ 5   2/120/10
CAPE LOOKOUT NC  0900   45      10/ 11/ 15 1027.4R
BUOY 41002       0950   68 71   90/  4/  6 1025.8R   4/ 9   3/ 80/ 9
BUOY 41010       NOT AVBL
ST AUGUSTINE FL  1000   65 64   90/  3/  4 1024.5R


$$




USA.gov is the U.S. government's official web portal to all federal, state and local government web resources and services.